Powrót do katalogu

THORAD DELTA 1 DEB

AktywnyLEO
NORAD 8593·DEBRIS·🇺🇸 United States

Wystrzelony Nov 15, 1974 z Vandenberg Space Force Base

Loading…

Następne Przeloty (najbliższe 24 godziny)

TLE

ŚwieżeSource: Space-Track

Epoka: Sep 14, 2026, 08:57 UTC

1 08593U 74089DG  26257.37334078 -.00000050  00000-0 -75020-6 0  9997
2 08593 101.9235 212.9334 0223450 312.1634 203.8951 12.71148432403422

Śledź THORAD DELTA 1 DEB w czasie rzeczywistym z AllMySat

Download on the App Store